724  
ASUS43 KTOP 262308  
RWRKS  
 
WEATHER ROUNDUP FOR KANSAS  
NATIONAL WEATHER SERVICE GOODLAND KS  
500 PM CST SAT NOV 26 2022  
 
NOTE: "FAIR" INDICATES FEW OR NO CLOUDS BELOW 12,000 FEET WITH NO  
SIGNIFICANT WEATHER AND/OR S TO VISIBILITY
.  
 
KSZ001>006-013>018-027>032-041>047-270000-  
NORTHWEST KANSAS  
 
CITY SKY/WX TMP DP RH WIND PRES REMARKS
 
GOODLAND N/A N/A N/A N/A MISG 29.73R  
HAYS LGT RAIN 44 36 73 NW8 29.71F  
HILL CITY MOCLDY 57 30 35 S5 29.71S  
RUSSELL CLOUDY 47 34 60 N8 29.69F  

 
 
KSZ061>065-074>080-084>089-270000-  
SOUTHWEST KANSAS  
 
CITY SKY/WX TMP DP RH WIND PRES REMARKS
 
DODGE CITY LGT RAIN 46 37 71 NW6 29.71F  
ELKHART MOCLDY 51 30 43 CALM 29.73F  
GARDEN CITY CLOUDY 48 30 49 SE5 29.72R  
GREAT BEND CLOUDY 48 34 58 CALM 29.72R  
LIBERAL LGT RAIN 42 42 100 NW6 29.73S  
PRATT RAIN 48 37 64 E5 29.73R  

 
 
KSZ066>073-081>083-090>101-270000-  
SOUTHEAST KANSAS  
 
CITY SKY/WX TMP DP RH WIND PRES REMARKS
 
CHANUTE CLOUDY 48 44 86 NE12 29.65F  
COFFEYVILLE RAIN 48 47 96 N8 29.63F FOG  
HUTCHINSON RAIN 45 39 79 NE5 29.72R  
MEDICINE LODGE N/A 44 42 93 N6 N/A  
NEWTON LGT RAIN 45 44 97 CALM 29.72S  
PARSONS HVY RAIN 48 45 89 CALM 29.67F FOG  
WICHITA INTL RAIN 47 44 90 NE9 29.69F FOG  
WICHITA JABRA RAIN 46 43 89 NW7 29.70F FOG  
WICHITA MCCONL RAIN 45 44 96 N8 29.66 FOG  
WINFIELD CLOUDY 48 32 53 N12 29.66S  

 
 
KSZ007>012-019>026-033>040-048>060-102>105-270000-  
NORTHEAST KANSAS  
 
CITY SKY/WX TMP DP RH WIND PRES REMARKS
 
CONCORDIA CLOUDY 47 38 71 SE13 29.72S  
EMPORIA CLOUDY 48 41 76 CALM 29.69F  
LAWRENCE CLOUDY 49 40 71 N5 29.75F  
MANHATTAN CLOUDY 48 38 68 NE6 29.75F  
MARYSVILLE MOCLDY 46 34 61 CALM 29.77R  
OLATHE IND LGT RAIN 49 36 61 NE9 29.74F  
OLATHE EXE CLOUDY 49 36 61 E6 29.74F  
SALINA CLOUDY 48 37 65 E5 29.75R  
TOPEKA BILLARD CLOUDY 49 39 68 N6 29.75F  
TOPEKA FORBES CLOUDY 49 40 71 N7 29.74F  

 
 
 
CLICK HERE TO GO TO PREVIOUS BULLETINS.

The Nexlab KS Page Main Text Page